DW8306 Weather Reports


time (UTC)temp
F
wind
direction
speed
knots
gust
knots
rain 1hr
in
rain 24hr
in
rain mn
in
humidity
%
barometer
mb
20260906171537 90 276 0.0 4.3 0.00 0.18 0.00 69 1013.2
20260906170039 90 256 0.0 1.7 0.00 0.18 0.00 68 1013.3
20260906164533 89 201 0.0 3.5 0.00 0.18 0.00 71 1013.7
20260906163031 88 158 0.0 1.7 0.00 0.18 0.00 71 1013.7
20260906161531 88 359 0.0 3.5 0.00 0.18 0.00 74 1013.8
20260906160033 86 359 0.0 0.9 0.00 0.18 0.00 75 1013.8
20260906154535 85 179 0.0 0.9 0.00 0.18 0.00 77 1013.7
20260906153014 84 125 0.0 3.5 0.00 0.18 0.00 78 1013.5
20260906151512 83 8 0.0 3.5 0.00 0.18 0.00 79 1013.5
20260906150017 82 303 0.0 1.7 0.00 0.18 0.00 80 1013.7
20260906144507 82 324 0.0 1.7 0.00 0.18 0.00 81 1013.6
20260906143002 80 24 0.0 1.7 0.00 0.18 0.00 86 1013.6
20260906141600 79 75 0.0 0.0 0.00 0.18 0.00 89 1013.6
20260906140054 77 75 0.0 1.7 0.00 0.18 0.00 93 1013.7
20260906134554 76 330 0.0 0.0 0.00 0.18 0.00 94 1013.8
20260906133058 76 292 0.0 0.0 0.00 0.18 0.00 95 1013.7
20260906131556 76 292 0.0 0.0 0.00 0.18 0.00 96 1013.6
20260906130050 75 292 0.0 0.0 0.00 0.18 0.00 96 1013.6
20260906124549 74 292 0.0 0.0 0.00 0.18 0.00 96 1013.5
20260906123046 74 292 0.0 0.0 0.00 0.18 0.00 96 1013.2
20260906121546 74 292 0.0 0.0 0.00 0.18 0.00 96 1013.1
20260906120043 74 283 0.0 1.7 0.00 0.18 0.00 95 1012.9
20260906114542 74 280 0.0 0.0 0.00 0.18 0.00 95 1012.7
20260906113046 75 315 0.0 0.9 0.00 0.18 0.00 96 1012.7
20260906111540 75 325 0.0 0.0 0.00 0.18 0.00 96 1012.7
20260906110038 75 325 0.0 0.0 0.00 0.18 0.00 96 1012.4
20260906104537 75 359 0.0 0.0 0.00 0.18 0.00 96 1012.3
20260906103036 74 325 0.0 0.0 0.00 0.18 0.00 96 1012.4
20260906101535 74 359 0.0 0.0 0.00 0.18 0.00 95 1012.3
20260906100034 74 359 0.0 0.0 0.00 0.18 0.00 95 1012.1
20260906094535 75 325 0.0 1.7 0.00 0.18 0.00 96 1012.1
20260906093032 74 322 0.0 0.0 0.00 0.18 0.00 95 1012.1
20260906091534 74 321 0.0 0.0 0.00 0.18 0.00 95 1012.0
20260906090030 74 321 0.0 0.0 0.00 0.18 0.00 95 1012.0
20260906084530 74 322 0.0 0.0 0.00 0.18 0.00 95 1011.8
20260906083032 74 321 0.0 0.0 0.00 0.18 0.00 95 1011.9
20260906081534 75 322 0.0 0.9 0.00 0.18 0.00 95 1011.9
20260906080026 75 292 0.0 3.5 0.00 0.18 0.00 95 1011.9
20260906074525 75 314 0.0 0.0 0.00 0.18 0.00 95 1011.8
20260906073024 75 314 0.0 0.9 0.00 0.18 0.00 95 1011.9
20260906071524 76 359 0.0 0.9 0.00 0.18 0.00 95 1011.9
20260906070022 76 4 0.0 0.0 0.00 0.18 0.00 95 1011.8
20260906064526 76 4 0.0 0.9 0.00 0.18 0.00 95 1011.6
20260906063020 75 4 0.0 0.0 0.00 0.18 0.00 95 1011.7
20260906061518 75 4 0.0 0.0 0.00 0.18 0.00 95 1011.6
20260906060016 75 4 0.0 0.0 0.00 0.18 0.00 95 1011.4
20260906054516 75 4 0.0 0.0 0.00 0.18 0.00 94 1011.4
20260906053013 75 4 0.0 0.9 0.00 0.18 0.00 95 1011.4
20260906051510 76 4 0.0 0.9 0.00 0.18 0.00 94 1011.5
20260906050021 76 4 0.0 1.7 0.00 0.18 0.18 95 1011.2
20260906044507 76 4 0.0 0.9 0.00 0.18 0.18 95 1011.3
20260906043009 76 4 0.0 0.0 0.00 0.18 0.18 95 1011.2
20260906041505 76 4 0.0 0.0 0.01 0.18 0.18 94 1011.0
20260906040006 76 4 0.0 0.0 0.01 0.18 0.18 94 1010.9
20260906034504 76 4 0.0 0.0 0.01 0.18 0.18 94 1010.8
20260906033002 76 4 0.0 0.0 0.01 0.18 0.18 94 1010.9
20260906031503 76 4 0.0 0.0 0.00 0.17 0.17 94 1011.0
20260906030004 76 4 0.0 0.0 0.00 0.17 0.17 93 1010.9
20260906024501 76 4 0.0 0.9 0.00 0.17 0.17 94 1010.8
20260906023121 76 4 0.0 0.0 0.00 0.17 0.17 93 1010.8
20260906021612 76 4 0.0 0.0 0.00 0.17 0.17 93 1010.6
20260906014609 76 349 0.0 3.5 0.00 0.17 0.17 92 1010.7
20260906013057 77 83 0.0 0.9 0.00 0.17 0.17 92 1010.7
20260906011556 77 93 0.0 0.9 0.05 0.17 0.17 92 1011.2
20260906010054 77 124 0.0 4.3 0.17 0.17 0.17 91 1011.4
20260906004556 78 278 0.9 4.3 0.17 0.17 0.17 91 1011.5
20260906003103 78 146 0.0 3.5 0.17 0.17 0.17 89 1011.9
20260906001552 80 198 0.0 5.2 0.12 0.12 0.12 85 1012.8
20260906000052 83 268 0.0 5.2 0.00 0.00 0.00 76 1013.3
20260905234558 84 35 1.7 7.8 0.00 0.00 0.00 76 1012.2
20260905233051 85 97 0.0 4.3 0.00 0.00 0.00 74 1011.4
20260905231551 87 209 0.9 7.0 0.00 0.00 0.00 72 1011.5
20260905230052 90 120 2.6 7.8 0.00 0.00 0.00 67 1010.7
20260905224549 93 215 0.0 0.9 0.00 0.00 0.00 62 1010.3
20260905223050 94 135 0.0 1.7 0.00 0.00 0.00 59 1009.7
20260905221548 96 233 0.0 0.9 0.00 0.00 0.00 59 1009.6
20260905220046 96 84 0.9 6.1 0.00 0.00 0.00 56 1009.6
20260905214552 97 157 0.0 4.3 0.00 0.00 0.00 58 1009.7
20260905213046 97 39 0.9 6.1 0.00 0.00 0.00 56 1009.8
20260905211543 96 73 0.9 5.2 0.00 0.00 0.00 58 1009.6
20260905210045 95 91 3.5 7.8 0.00 0.00 0.00 56 1009.9
20260905204540 97 120 0.9 6.1 0.00 0.00 0.00 56 1010.0
20260905203040 94 64 0.9 7.0 0.00 0.00 0.00 60 1010.3
20260905201539 94 58 3.5 7.0 0.00 0.00 0.00 60 1010.6
20260905200042 94 237 0.9 6.1 0.00 0.00 0.00 64 1010.7
20260905194532 95 57 2.6 9.6 0.00 0.00 0.00 62 1010.9
20260905193032 96 87 4.3 8.7 0.00 0.00 0.00 57 1011.0
20260905191529 96 85 3.5 8.7 0.00 0.00 0.00 56 1011.1
20260905190026 96 38 2.6 6.1 0.00 0.00 0.00 54 1011.2
20260905184532 95 124 0.9 5.2 0.00 0.00 0.00 58 1011.5
20260905183028 96 97 3.5 9.6 0.00 0.00 0.00 55 1011.6
20260905181521 97 83 0.9 5.2 0.00 0.00 0.00 55 1012.0
20260905180017 95 44 2.6 7.0 0.00 0.00 0.00 56 1012.0
20260905174528 93 104 0.9 7.0 0.00 0.00 0.00 62 1012.4
20260905173015 94 10 0.0 4.3 0.00 0.00 0.00 62 1012.7